When you browse on this site, cookies collect data to enhance your experience and personalize the content and advertising you see.
Visit our Privacy Policy to learn more. By continuing to use the site, you agree to this use of cookies and data.

Hourly Weather Matlock

Today, 22 September, Tuesday

Time Temperature Precipitation Wind Pressure Humidity
00:00 +14°C° 0 mm 1 mps 743 mmHg 91%
01:00 +14°C° 0 mm 1 mps 743 mmHg 91%
02:00 +13°C° 0 mm 1 mps 742 mmHg 92%
03:00 +13°C° 0 mm 1 mps 742 mmHg 93%
04:00 +13°C° 0 mm 1 mps 741 mmHg 93%
05:00 +13°C° 0 mm 2 mps 741 mmHg 94%
06:00 +13°C° 0 mm 2 mps 741 mmHg 94%
07:00 +15°C° 0 mm 2 mps 740 mmHg 89%
08:00 +16°C° 0 mm 3 mps 740 mmHg 85%
09:00 +18°C° 0 mm 4 mps 740 mmHg 80%
10:00 +19°C° 0 mm 4 mps 739 mmHg 75%
11:00 +20°C° 0 mm 5 mps 739 mmHg 70%
12:00 +22°C° 0 mm 6 mps 738 mmHg 66%
13:00 +21°C° 0 mm 6 mps 738 mmHg 67%
14:00 +21°C° 0 mm 6 mps 737 mmHg 68%
15:00 +21°C° 0 mm 6 mps 737 mmHg 69%
16:00 +20°C° 0.1 mm 5 mps 736 mmHg 74%
17:00 +19°C° 0.1 mm 5 mps 736 mmHg 78%
18:00 +17°C° 0.1 mm 4 mps 735 mmHg 83%
19:00 +17°C° 0 mm 4 mps 735 mmHg 84%
20:00 +15°C° 0 mm 5 mps 735 mmHg 84%
21:00 +14°C° 0 mm 5 mps 735 mmHg 85%
22:00 +14°C° 0 mm 5 mps 735 mmHg 86%
23:00 +13°C° 0 mm 4 mps 735 mmHg 88%

Tomorrow, 23 September, Wednesday

Time Temperature Precipitation Wind Pressure Humidity
00:00 +12°C° 0 mm 4 mps 734 mmHg 89%
01:00 +12°C° 0.1 mm 4 mps 734 mmHg 90%
02:00 +12°C° 0.1 mm 3 mps 734 mmHg 90%
03:00 +12°C° 0.1 mm 3 mps 734 mmHg 90%
04:00 +12°C° 0.2 mm 3 mps 734 mmHg 89%
05:00 +12°C° 0.2 mm 2 mps 734 mmHg 89%
06:00 +12°C° 0.2 mm 2 mps 734 mmHg 88%
07:00 +12°C° 0 mm 2 mps 734 mmHg 85%
08:00 +11°C° 0 mm 3 mps 734 mmHg 83%
09:00 +11°C° 0 mm 3 mps 734 mmHg 80%
10:00 +12°C° 0 mm 3 mps 734 mmHg 76%
11:00 +12°C° 0 mm 3 mps 734 mmHg 72%
12:00 +14°C° 0 mm 2 mps 734 mmHg 68%
13:00 +13°C° 0.1 mm 3 mps 734 mmHg 66%
14:00 +13°C° 0.1 mm 3 mps 734 mmHg 64%
15:00 +13°C° 0.1 mm 4 mps 734 mmHg 62%
16:00 +12°C° 0.1 mm 3 mps 734 mmHg 65%
17:00 +11°C° 0.1 mm 3 mps 733 mmHg 68%
18:00 +10°C° 0.1 mm 3 mps 733 mmHg 71%
19:00 +10°C° 0.1 mm 3 mps 733 mmHg 72%
20:00 +8°C° 0.1 mm 4 mps 733 mmHg 73%
21:00 +7°C° 0.1 mm 5 mps 732 mmHg 74%
22:00 +6°C° 0 mm 5 mps 732 mmHg 75%
23:00 +6°C° 0 mm 4 mps 732 mmHg 77%

Day after tomorrow, 24 September, Thursday

Time Temperature Precipitation Wind Pressure Humidity
00:00 +5°C° 0 mm 4 mps 732 mmHg 78%
01:00 +5°C° 0 mm 3 mps 732 mmHg 81%
02:00 +4°C° 0 mm 3 mps 731 mmHg 85%
03:00 +5°C° 0 mm 2 mps 731 mmHg 88%
04:00 +4°C° 0 mm 3 mps 731 mmHg 86%
05:00 +5°C° 0 mm 3 mps 730 mmHg 83%
06:00 +5°C° 0 mm 3 mps 730 mmHg 81%
07:00 +6°C° 0.3 mm 4 mps 730 mmHg 81%
08:00 +7°C° 0.3 mm 5 mps 729 mmHg 81%
09:00 +8°C° 0.3 mm 6 mps 729 mmHg 82%
10:00 +9°C° 0.2 mm 6 mps 729 mmHg 75%
11:00 +10°C° 0.2 mm 6 mps 729 mmHg 68%
12:00 +12°C° 0.2 mm 5 mps 729 mmHg 62%
13:00 +10°C° 0.4 mm 5 mps 728 mmHg 64%
14:00 +11°C° 0.4 mm 4 mps 728 mmHg 66%
15:00 +11°C° 0.4 mm 4 mps 728 mmHg 68%
16:00 +10°C° 0.3 mm 3 mps 728 mmHg 72%
17:00 +9°C° 0.3 mm 2 mps 728 mmHg 75%
18:00 +8°C° 0.3 mm 2 mps 728 mmHg 79%
19:00 +8°C° 0.1 mm 1 mps 728 mmHg 81%
20:00 +8°C° 0.1 mm 1 mps 729 mmHg 82%
21:00 +7°C° 0.1 mm 1 mps 729 mmHg 84%
22:00 +7°C° 0 mm 1 mps 730 mmHg 84%
23:00 +7°C° 0 mm 1 mps 730 mmHg 84%

25 September, Friday

Time Temperature Precipitation Wind Pressure Humidity
00:00 +6°C° 0 mm 1 mps 730 mmHg 84%
01:00 +5°C° 0 mm 2 mps 731 mmHg 86%
02:00 +5°C° 0 mm 2 mps 731 mmHg 87%
03:00 +4°C° 0 mm 3 mps 731 mmHg 89%
04:00 +4°C° 0.5 mm 3 mps 732 mmHg 89%
05:00 +5°C° 0.5 mm 4 mps 733 mmHg 88%
06:00 +5°C° 0.5 mm 5 mps 734 mmHg 88%
07:00 +6°C° 0 mm 5 mps 734 mmHg 82%
08:00 +7°C° 0 mm 6 mps 735 mmHg 77%
09:00 +7°C° 0 mm 6 mps 736 mmHg 71%
10:00 +8°C° 0 mm 7 mps 736 mmHg 66%
11:00 +9°C° 0 mm 7 mps 737 mmHg 60%
12:00 +10°C° 0 mm 7 mps 737 mmHg 54%
13:00 +10°C° 0 mm 7 mps 738 mmHg 56%
14:00 +9°C° 0 mm 7 mps 738 mmHg 57%
15:00 +9°C° 0 mm 7 mps 739 mmHg 58%
16:00 +8°C° 0 mm 6 mps 739 mmHg 62%
17:00 +7°C° 0 mm 5 mps 740 mmHg 66%
18:00 +7°C° 0 mm 4 mps 740 mmHg 70%
19:00 +6°C° 0 mm 4 mps 741 mmHg 71%
20:00 +6°C° 0 mm 4 mps 741 mmHg 73%
21:00 +5°C° 0 mm 4 mps 742 mmHg 74%
22:00 +5°C° 0 mm 4 mps 742 mmHg 74%
23:00 +5°C° 0 mm 4 mps 743 mmHg 74%

26 September, Saturday

Time Temperature Precipitation Wind Pressure Humidity
00:00 +5°C° 0 mm 5 mps 743 mmHg 74%
01:00 +4°C° 0 mm 4 mps 743 mmHg 73%
02:00 +4°C° 0 mm 4 mps 743 mmHg 73%
03:00 +4°C° 0 mm 4 mps 743 mmHg 72%
04:00 +3°C° 0 mm 4 mps 743 mmHg 74%
05:00 +3°C° 0 mm 4 mps 743 mmHg 76%
06:00 +3°C° 0 mm 3 mps 744 mmHg 78%
07:00 +4°C° 0 mm 4 mps 744 mmHg 74%
08:00 +6°C° 0 mm 4 mps 744 mmHg 71%
09:00 +8°C° 0 mm 4 mps 745 mmHg 67%
10:00 +8°C° 0 mm 4 mps 745 mmHg 66%
11:00 +10°C° 0 mm 4 mps 745 mmHg 65%
12:00 +11°C° 0 mm 4 mps 745 mmHg 65%
13:00 +10°C° 0.1 mm 4 mps 745 mmHg 67%
14:00 +10°C° 0.1 mm 4 mps 745 mmHg 69%
15:00 +10°C° 0.1 mm 4 mps 745 mmHg 72%
16:00 +9°C° 0.2 mm 3 mps 745 mmHg 75%
17:00 +8°C° 0.2 mm 3 mps 746 mmHg 78%
18:00 +8°C° 0.2 mm 2 mps 746 mmHg 81%
19:00 +7°C° 0 mm 2 mps 746 mmHg 80%
20:00 +7°C° 0 mm 2 mps 746 mmHg 78%
21:00 +6°C° 0 mm 2 mps 747 mmHg 77%
22:00 +5°C° 0 mm 2 mps 747 mmHg 77%
23:00 +6°C° 0 mm 1 mps 747 mmHg 77%

27 September, Sunday

Time Temperature Precipitation Wind Pressure Humidity
00:00 +5°C° 0 mm 1 mps 747 mmHg 77%
01:00 +5°C° 0 mm 1 mps 747 mmHg 77%
02:00 +4°C° 0 mm 1 mps 747 mmHg 77%
03:00 +4°C° 0 mm 1 mps 747 mmHg 78%
04:00 +4°C° 0 mm 1 mps 747 mmHg 79%
05:00 +4°C° 0 mm 1 mps 747 mmHg 81%
06:00 +3°C° 0 mm 2 mps 747 mmHg 82%
07:00 +5°C° 0 mm 2 mps 748 mmHg 79%
08:00 +7°C° 0 mm 2 mps 748 mmHg 77%
09:00 +8°C° 0 mm 2 mps 748 mmHg 74%
10:00 +9°C° 0 mm 3 mps 747 mmHg 70%
11:00 +11°C° 0 mm 3 mps 747 mmHg 65%
12:00 +12°C° 0 mm 3 mps 747 mmHg 61%
13:00 +12°C° 0 mm 4 mps 747 mmHg 62%
14:00 +13°C° 0 mm 4 mps 746 mmHg 63%
15:00 +13°C° 0 mm 4 mps 746 mmHg 63%
16:00 +12°C° 0 mm 3 mps 746 mmHg 71%
17:00 +11°C° 0 mm 3 mps 746 mmHg 79%
18:00 +10°C° 0 mm 2 mps 745 mmHg 86%
19:00 +10°C° 0 mm 3 mps 745 mmHg 88%
20:00 +10°C° 0 mm 3 mps 745 mmHg 89%
21:00 +10°C° 0 mm 3 mps 745 mmHg 91%
22:00 +9°C° 0 mm 3 mps 745 mmHg 92%
23:00 +9°C° 0 mm 3 mps 745 mmHg 93%
Show more